Weather in Gorbunovka

Russia / Zabaykalsky Krai     51°13′46″N   119°45′35″E
temp.,
°C
wind,
m/s
gust,
m/s
humid.,
%
clouds,
%
prec.,
mm/h
press.,
hPa
HPBL,
m
7 march, sun
sun700:00−21wsw1110098 0.1 102620
03:00−23sw2210065 0.1 102720
06:00−23sw1110078 0.0 102720
09:00−21sw119888 0.0 102820
12:00−15sw118962 0.0 1026225
15:00−12ssw228769 0.0 1025229
18:00−14sw12926 0.0 102520
21:00−18sw12953 0.0 102720
8 march, mon
mon800:00−18ssw22900 0.0 102620
03:00−19ssw228713 0.0 102620
06:00−19ssw229556 0.0 102320
09:00−16ssw229674 0.0 102284
12:00−11sw3794100 0.0 1018362
15:00−9sw3693100 0.1 1015387
18:00−10sw2395100 0.0 101547
21:00−12sw239797 0.3 101621
9 march, tue
tue900:00−7wnw6147483 0.4 1017440
03:00−11wnw5157542 0.4 1020360
06:00−13nw48740 0.0 1025143
09:00−15wsw12780 0.0 102920
12:00−10sw23740 0.0 1029323
15:00−9sw23820 0.0 1028259
18:00−11ssw23870 0.0 102727
21:00−14ssw238317 0.0 102922
10 march, wed
wed1000:00−15s238597 0.0 102724
03:00−14ssw228399 0.0 102523
06:00−15ssw2285100 0.0 102321
09:00−14sw228893 0.0 102362
12:00−10sw238419 0.0 1022243
15:00−4wsw278211 0.0 1021580
18:00−5w33823 0.0 102359
21:00−10wsw22813 0.0 102721
11 march, thu
thu1100:00−12sw12810 0.0 102921
03:00−14ssw018217 0.0 103121
06:00−16ssw008437 0.0 103320
09:00−13sse008635 0.0 103421
12:00−8sw228328 0.0 1032257
15:00−6sw248841 0.0 1030382
18:00−8sw229255 0.0 103023
21:00−12ssw239440 0.0 103221